Location: Newark
(40.3500°N, 15.2333°E)
Time: 05:49:53
(UTC+00:00)

Hubble Space Telescope - Visible Passes

Search period start: 10 December 2019 00:00
Search period end: 20 December 2019 00:00
Orbit: 536 x 540 km, 28.5° (Epoch: 08 December)

Date Brightness Start Highest point End Pass type
(mag) Time Alt. Az. Time Alt. Az. Time Alt. Az.
13 Dec 3.7 05:29:57 10° S 05:31:01 11° SSE 05:32:02 10° SSE visible
14 Dec 3.6 05:18:35 10° SSW 05:20:16 12° SSE 05:21:57 10° SE visible
15 Dec 3.4 05:07:28 10° SSW 05:09:31 13° S 05:11:35 10° SE visible
16 Dec 3.3 04:56:31 10° SSW 04:58:48 14° S 05:01:05 10° SE visible
17 Dec 3.3 04:45:39 10° SSW 04:48:04 15° S 04:50:30 10° SE visible
18 Dec 3.2 04:34:57 10° SW 04:37:21 16° S 04:39:51 10° SE visible
19 Dec 3.0 04:25:04 13° SSW 04:26:37 16° S 04:29:09 10° SE visible
